EHI
0 0 0 0 1 2 2 1 0 0 0 0 0 0 0 0 0 0 0 0 0 0 0 0 0 0 0 0 0 0 0 0 0 0 0 0 0 0 0 0 0 0 0
0 0 0 0 0 1 1 0 0 0 0 0 0 0 0 0 0 0 0 0 0 0 0 0 0 0 0 0 0 0 0 0 0 0 0 0 0 0 0 0 0 0 0
0 0 0 0 0 0 0 0 0 0 0 0 0 0 0 0 0 0 0 0 0 0 0 0 0 0 0 0 0 0 0 0 0 0 0 0 0 0 0 0 0 0 0
0 0 0 0 0 0 0 0 0 0 0 0 0 0 0 0 0 0 0 0 0 0 0 0 0 0 0 0 0 0 0 0 0 0 0 0 0 0 0 0 0 0 0
0 0 0 0 0 0 0 0 0 0 0 0 0 0 0 0 0 0 0 0 0 0 0 0 0 0 0 0 0 0 0 0 0 0 0 0 0 0 0 0 0 0 0
0 0 0 0 0 0 0 0 0 0 0 0 0 0 0 0 0 0 0 0 0 0 0 0 0 0 0 0 0 0 0 0 0 0 0 0 0 0 0 0 0 0 0
0 0 0 0 0 0 0 0 0 0 0 0 0 0 0 0 0 0 0 0 0 0 0 0 0 0 0 0 0 0 0 0 0 0 0 0 0 0 0 0 0 0 0
0 0 0 0 0 0 0 0 0 0 0 0 0 0 0 0 0 0 0 0 0 0 0 0 0 0 0 0 0 0 0 0 0 0 0 0 0 0 0 0 0 0 0
0 0 0 0 0 0 0 0 0 0 0 0 0 0 0 0 0 0 0 0 0 0 0 0 0 0 0 0 0 0 0 0 0 0 0 0 0 0 0 0 0 0 0
0 0 0 0 0 0 0 0 0 0 0 0 0 0 0 0 0 0 0 0 0 0 0 0 0 0 0 0 0 0 0 0 0 0 0 0 0 0 0 0 0 0 0
0 0 0 0 0 0 0 0 0 0 0 0 0 0 0 0 0 0 0 0 0 0 0 0 0 0 0 0 0 0 0 0 0 0 0 0 0 0 0 0 0 0 0
0 0 0 0 0 0 0 0 0 0 0 0 0 0 0 0 0 0 0 0 0 0 0 0 0 0 0 0 0 0 0 0 0 0 0 0 0 0 0 0 0 0 0
0 0 0 0 0 0 0 0 0 0 0 0 0 0 0 0 0 0 0 0 0 0 0 0 0 0 0 0 0 0 0 0 0 0 0 0 0 0 0 0 0 0 0
0 0 0 0 0 0 0 0 0 0 0 0 0 0 0 0 0 0 0 0 0 0 0 0 0 0 0 0 0 0 0 0 0 0 0 0 0 0 0 0 0 0 0
0 0 0 0 0 0 0 0 0 0 0 0 0 0 0 0 0 0 0 0 0 0 0 0 0 0 0 0 0 0 0 0 0 0 0 0 0 0 0 0 0 0 0
0 0 0 0 0 0 0 0 0 0 0 0 0 0 0 0 0 0 0 0 0 0 0 0 0 0 0 0 0 0 0 0 0 0 0 0 0 0 0 0 0 0 0
0 0 0 0 0 0 0 0 0 0 0 0 0 0 0 0 0 0 0 0 0 0 0 0 0 0 0 0 0 0 0 0 0 0 0 0 0 0 0 0 0 0 0
0 0 0 0 0 0 0 0 0 0 0 0 0 0 0 0 0 0 0 0 0 0 0 0 0 0 0 0 0 0 0 0 0 0 0 0 0 0 0 0 0 0 0
0 0 0 0 0 0 0 0 0 0 0 0 0 0 0 0 0 0 0 0 0 0 0 0 0 0 0 0 0 0 0 0 0 0 0 0 0 0 0 0 0 0 0
0 0 0 0 0 0 0 0 0 0 0 0 0 0 0 0 0 0 0 0 0 0 0 0 0 0 0 0 0 0 0 0 0 0 0 0 0 0 0 0 0 0 0
0 0 0 0 0 0 0 0 0 0 0 0 0 0 0 0 0 0 0 0 0 0 0 0 0 0 0 0 0 0 0 0 0 0 0 0 0 0 0 0 0 0 0
0 0 0 0 0 0 0 0 0 0 0 0 0 0 0 0 0 0 0 0 0 0 0 0 0 0 0 0 0 0 0 0 0 0 0 0 0 0 0 0 0 0 0
0 0 0 0 0 0 0 0 0 0 0 0 0 0 0 0 0 0 0 0 0 0 0 0 0 0 0 0 0 0 0 0 0 0 0 0 0 0 0 0 0 0 0
0 0 0 0 0 0 0 0 0 0 0 0 0 0 0 0 0 0 0 0 0 0 0 0 0 0 0 0 0 0 0 0 0 0 0 0 0 0 0 0 0 0 0
0 0 0 0 0 0 0 0 0 0 0 0 0 0 0 0 0 0 0 0 0 0 0 0 0 0 0 0 0 0 0 0 0 0 0 0 0 0 0 0 0 0 0
0 0 0 0 0 0 0 0 0 0 0 0 0 0 0 0 0 0 0 0 0 0 0 0 0 0 0 0 0 0 0 0 0 0 0 0 0 0 0 0 0 0 0
Wind_Speed
5 4 3 3 3 3 3 3 3 4 5 4 3 4 4 4 4 4 5 9 8 7 7 7 8 8 8 7 7 7 7 7 7 7 7 7 8 8 9 9 9 9 9
4 4 4 3 3 3 3 3 4 4 4 4 4 4 4 4 4 4 4 6 9 9 8 8 8 8 8 7 7 7 7 6 6 6 7 8 8 8 9 9 9 9 9
5 5 4 3 3 3 4 3 5 4 4 4 5 5 4 4 4 4 4 4 5 8 8 8 8 7 7 7 7 7 7 7 7 7 8 8 8 8 8 9 9 9 10
5 4 4 4 3 3 3 3 4 4 4 4 4 3 3 3 4 4 4 3 3 3 6 8 8 8 7 7 7 7 7 7 7 7 8 8 8 8 8 8 8 9 9
4 4 4 4 4 3 3 3 3 4 4 4 4 3 3 3 3 3 3 3 3 3 3 6 7 8 7 7 6 6 6 6 6 7 7 7 7 8 8 8 8 8 9
3 3 3 4 4 4 3 3 4 4 4 4 4 3 3 2 2 2 2 2 2 3 2 2 2 4 6 7 6 6 6 6 6 6 6 6 7 7 7 7 8 8 9
3 3 3 4 3 3 4 4 4 5 4 3 3 3 2 2 2 2 1 1 2 2 2 1 1 1 2 4 6 6 6 5 5 5 5 6 6 7 7 7 7 8 8
3 3 3 3 3 3 4 4 4 3 2 1 1 2 2 3 2 1 1 1 1 1 1 1 1 1 1 1 4 5 6 6 6 5 5 6 6 7 7 7 7 8 8
3 3 3 3 3 3 4 4 3 3 3 1 1 1 1 1 2 2 2 1 1 1 1 0 0 1 1 1 1 3 5 6 6 6 6 6 7 7 8 7 7 7 8
3 3 3 3 3 3 4 3 3 2 3 2 1 1 2 1 1 2 3 2 2 2 1 1 1 0 0 1 2 4 5 6 7 7 7 7 7 8 8 8 8 8 8
3 3 3 3 3 2 3 3 3 2 2 2 2 1 1 1 2 2 2 2 2 2 2 2 2 1 1 1 1 2 4 6 7 7 8 8 8 8 9 9 9 9 9
2 3 3 3 3 2 3 3 2 3 2 2 1 2 2 2 2 2 2 2 3 2 2 2 3 2 2 2 2 3 4 5 7 8 8 9 9 9 9 10 9 9 9
3 3 2 2 2 2 2 2 2 2 2 2 2 1 1 1 1 2 2 2 3 2 3 3 3 3 2 3 2 3 5 6 7 8 9 9 9 9 9 10 10 10 10
3 4 3 3 3 3 3 3 2 2 2 2 2 2 1 1 1 2 2 2 3 3 4 4 2 3 3 3 2 5 4 5 7 8 9 9 9 9 9 10 10 10 10
3 5 4 4 3 3 3 3 2 3 3 3 2 3 2 2 1 1 2 3 3 4 4 3 2 2 2 3 3 5 5 5 8 9 9 9 9 9 10 10 10 10 10
5 5 5 4 4 4 4 4 3 3 3 3 2 3 3 2 2 2 2 2 3 4 4 2 3 3 3 4 5 6 6 7 9 9 9 9 10 10 10 11 11 11 11
5 5 5 5 5 5 4 4 4 4 4 4 4 4 4 4 3 3 3 3 3 4 5 4 3 4 6 6 5 6 6 6 6 8 10 11 11 11 11 11 11 11 10
5 6 6 6 5 5 5 5 5 5 5 5 5 5 5 4 4 4 3 4 4 5 5 7 5 4 6 6 6 7 6 5 6 8 10 11 12 11 11 10 10 10 10
5 6 6 6 6 5 5 6 6 6 6 6 6 6 5 5 5 4 5 5 4 4 5 6 6 4 5 5 6 6 7 6 6 6 8 10 11 11 11 10 10 10 10
6 6 6 6 6 6 6 6 6 6 6 6 6 6 6 6 6 6 5 6 5 5 5 6 6 5 5 5 5 5 5 5 5 5 6 7 9 10 11 11 11 10 10
6 6 6 6 6 6 6 7 6 6 7 6 6 6 6 6 6 6 5 5 5 5 5 5 6 6 5 5 5 4 6 6 6 4 5 5 5 6 6 8 9 10 10
6 6 7 7 6 6 7 9 7 7 7 7 7 7 6 7 8 9 9 9 8 7 7 6 6 7 7 6 5 5 5 6 5 2 5 6 5 6 5 5 7 10 10
6 7 7 7 7 7 9 10 11 7 7 7 7 7 5 6 7 7 9 10 10 11 10 8 8 8 8 6 6 6 6 7 7 5 5 6 5 6 5 5 9 10 10
6 6 7 7 7 7 9 10 10 9 8 8 8 8 7 7 7 7 7 7 8 8 9 8 8 8 8 7 6 7 7 8 8 6 5 6 5 6 5 5 7 9 10
6 6 6 7 7 7 9 10 10 7 7 8 8 8 8 8 8 9 8 8 8 7 7 9 10 10 10 10 8 5 5 5 6 5 4 5 5 5 6 5 4 7 9
6 5 6 6 7 7 8 10 11 6 7 7 6 7 9 10 9 10 8 8 9 8 6 6 8 9 9 8 9 7 6 6 5 5 3 3 4 4 5 3 3 4 5
Wind_Direction
131 125 122 123 121 122 131 131 130 128 126 117 112 114 113 114 113 104 88 65 60 66 69 64 60 60 57 56 58 53 47 43 40 39 39 35 27 21 20 20 17 14 11
135 130 124 117 114 118 118 125 121 124 119 118 113 109 110 112 109 102 95 85 69 65 67 63 57 53 50 51 56 53 47 40 38 37 37 33 28 24 22 18 14 12 12
134 129 125 120 116 117 120 118 118 116 111 113 111 104 98 106 112 109 99 91 89 73 67 62 54 48 43 44 47 49 46 41 43 40 39 37 31 25 20 19 21 19 15
138 135 129 121 119 121 124 122 122 119 116 115 107 102 104 106 107 104 102 97 90 87 76 60 52 46 40 38 39 41 41 45 43 38 35 32 27 24 22 24 24 19 15
138 137 128 127 129 128 125 124 124 123 117 109 103 99 100 105 103 108 105 97 90 84 84 77 63 47 37 33 31 32 37 41 38 33 31 29 23 18 17 19 19 16 12
140 132 125 129 133 133 129 130 122 115 112 116 114 104 97 98 110 106 107 101 94 87 79 77 79 68 46 32 26 29 32 30 29 26 21 16 11 7 3 4 7 7 4
139 137 131 134 140 136 135 135 130 124 116 123 130 124 116 110 117 128 129 117 101 92 85 66 43 37 65 52 35 27 22 15 8 11 8 1 356 354 352 353 355 357 356
140 138 138 141 146 140 139 140 139 135 128 150 172 169 170 169 156 161 164 158 146 138 114 75 57 33 15 26 49 26 12 359 349 348 349 350 349 344 344 343 345 345 345
135 131 139 146 148 147 145 148 155 156 153 147 307 269 222 200 153 172 191 201 210 215 211 106 25 25 16 14 12 31 5 351 342 338 337 335 335 335 333 333 335 333 335
132 130 135 137 137 142 148 155 159 167 171 167 160 343 338 346 228 182 181 196 231 248 253 241 242 233 326 347 6 3 351 339 334 329 326 326 327 326 325 327 327 327 328
124 128 130 131 137 142 144 150 155 165 186 187 179 172 177 239 263 250 223 209 225 232 256 251 237 234 244 269 292 351 334 325 322 321 319 318 320 320 319 321 321 321 322
135 132 131 138 147 147 150 154 158 168 174 180 186 202 213 224 222 240 252 247 250 230 239 240 235 234 241 258 277 322 306 308 310 311 310 312 314 314 314 315 315 315 316
157 156 153 158 158 156 154 155 160 166 172 177 188 202 225 252 258 252 261 265 267 255 236 232 232 238 244 262 269 306 285 296 299 301 303 305 310 312 312 311 309 310 310
162 167 173 173 170 167 164 165 166 167 174 178 184 199 208 213 228 239 254 260 267 251 237 235 223 231 245 263 296 283 276 284 293 296 298 300 304 305 305 304 305 304 306
168 173 175 176 176 176 177 175 180 180 182 186 189 197 211 209 221 235 243 252 266 271 260 235 234 220 259 276 279 275 278 283 285 285 288 292 295 296 295 296 299 299 299
176 176 176 182 183 183 183 185 187 192 196 195 200 206 212 214 215 220 225 237 251 267 271 266 260 264 272 274 279 277 278 282 272 278 283 286 290 291 292 291 292 294 294
185 185 187 189 189 188 190 193 197 194 202 204 207 214 218 217 219 218 220 227 233 243 262 271 265 273 273 275 279 279 279 276 272 272 278 280 283 285 286 286 285 287 289
194 193 193 195 195 196 199 202 203 204 208 212 214 218 222 219 226 227 224 229 235 237 254 270 270 267 270 280 284 285 282 277 280 277 274 276 278 279 280 282 284 284 286
197 194 196 200 201 203 208 212 212 214 217 221 220 222 224 222 227 229 230 234 237 240 246 262 272 273 271 275 284 281 280 279 281 279 274 270 273 277 276 279 282 281 282
203 201 204 207 207 207 211 214 215 220 224 226 226 228 228 227 231 231 233 235 236 239 241 253 265 271 271 275 277 282 284 283 284 280 273 275 274 273 270 274 277 278 278
213 208 210 212 211 212 214 214 215 221 226 229 229 231 232 231 236 236 236 236 234 240 245 252 261 267 268 272 273 279 284 291 285 275 281 278 273 268 267 266 267 272 274
214 212 214 215 215 218 216 219 223 225 228 231 234 234 232 228 230 235 239 243 242 243 246 251 258 261 267 271 279 280 284 290 288 273 288 283 273 272 272 268 273 275 271
216 218 219 220 224 224 218 222 225 231 232 234 236 235 231 230 230 234 235 238 242 245 247 252 258 262 270 271 275 275 273 276 278 296 291 280 272 272 276 273 274 271 269
220 223 223 224 230 230 223 226 225 231 236 237 236 236 237 236 231 232 237 239 243 244 244 247 256 263 268 271 264 269 276 278 278 271 269 279 282 280 284 275 263 265 268
224 225 227 227 231 235 227 228 226 230 235 238 238 237 237 239 233 229 236 242 248 251 247 247 258 266 272 268 263 261 262 270 277 272 249 266 287 293 286 272 263 261 264
231 230 233 232 234 240 231 229 225 229 236 238 238 237 235 238 237 229 235 241 248 254 254 251 250 254 258 256 249 249 252 259 271 275 237 253 279 294 291 273 273 272 264